CW6353 Weather Reports


Display with metric or nautical units.
time (UTC)temp
F
wind
direction
speed
MPH
gust
MPH
rain 1hr
in
rain 24hr
in
rain mn
in
humidity
%
barometer
mb
20260506211517 71 198 0.0 8.0 0.22 0.29 0.29 87 1012.4
20260506211007 71 309 1.0 8.0 0.20 0.27 0.27 87 1012.4
20260506210515 71 323 5.0 8.0 0.12 0.19 0.19 87 1012.7
20260506210040 71 272 2.0 6.0 0.08 0.15 0.15 86 1012.8
20260506205505 71 270 3.0 9.0 0.04 0.11 0.11 86 1012.8
20260506205012 71 200 3.0 9.0 0.02 0.09 0.09 86 1012.5
20260506204516 71 217 2.0 10.0 0.06 0.09 0.09 86 1012.4
20260506204005 71 133 2.0 10.0 0.07 0.09 0.09 86 1012.5
20260506203511 71 205 3.0 7.0 0.07 0.08 0.08 86 1012.6
20260506203011 71 196 4.0 7.0 0.06 0.07 0.07 86 1012.6
20260506202503 71 213 2.0 7.0 0.06 0.07 0.07 86 1012.8
20260506202004 71 192 2.0 6.0 0.07 0.07 0.07 86 1013.0
20260506201516 72 145 2.0 7.0 0.07 0.07 0.07 86 1012.9
20260506201007 72 223 3.0 7.0 0.07 0.07 0.07 86 1013.3
20260506200507 72 217 1.0 7.0 0.07 0.07 0.07 86 1013.4
20260506200010 72 167 1.0 4.0 0.07 0.07 0.07 86 1013.2
20260506195507 72 165 1.0 6.0 0.07 0.07 0.07 85 1013.4
20260506195005 72 219 2.0 6.0 0.07 0.07 0.07 84 1013.8
20260506194525 72 242 2.0 8.0 0.03 0.03 0.03 83 1014.0
20260506194009 73 219 3.0 8.0 0.02 0.02 0.02 82 1013.9
20260506193504 73 219 3.0 6.0 0.01 0.01 0.01 82 1013.8
20260506193034 73 194 3.0 9.0 0.01 0.01 0.01 81 1013.9
20260506192507 74 243 4.0 11.0 0.01 0.01 0.01 79 1014.0
20260506192012 74 229 5.0 11.0 0.00 0.00 0.00 78 1014.0
20260506191513 75 227 6.0 11.0 0.00 0.00 0.00 76 1014.0
20260506191006 75 221 4.0 12.0 0.00 0.00 0.00 76 1013.9
20260506190502 76 238 5.0 12.0 0.00 0.00 0.00 75 1014.0
20260506190002 76 261 6.0 10.0 0.00 0.00 0.00 75 1014.2
20260506185505 76 146 3.0 10.0 0.00 0.00 0.00 75 1014.1
20260506185002 76 184 4.0 15.0 0.00 0.00 0.00 75 1014.2
20260506184504 76 234 5.0 18.0 0.00 0.00 0.00 75 1014.3
20260506184002 76 207 11.0 18.0 0.00 0.00 0.00 74 1014.4
20260506183503 76 198 4.0 10.0 0.00 0.00 0.00 76 1014.2
20260506183003 75 220 5.0 10.0 0.00 0.00 0.00 76 1014.3
20260506182506 75 179 5.0 12.0 0.00 0.00 0.00 76 1014.4
20260506182003 75 231 4.0 12.0 0.00 0.00 0.00 76 1014.4
20260506181501 75 206 6.0 12.0 0.00 0.00 0.00 76 1014.4
20260506181002 75 218 8.0 12.0 0.00 0.00 0.00 76 1014.6
20260506180501 75 227 5.0 16.0 0.00 0.00 0.00 76 1014.4
20260506180003 75 205 7.0 16.0 0.00 0.00 0.00 76 1014.4
20260506175502 75 207 6.0 15.0 0.00 0.00 0.00 75 1014.4
20260506175003 75 190 7.0 15.0 0.00 0.00 0.00 74 1014.6
20260506174503 76 233 8.0 16.0 0.00 0.00 0.00 75 1014.4
20260506174003 76 214 8.0 16.0 0.00 0.00 0.00 74 1014.4
20260506173504 76 209 8.0 17.0 0.00 0.00 0.00 75 1014.4
20260506173004 75 271 6.0 17.0 0.00 0.00 0.00 77 1014.5
20260506172503 74 246 9.0 16.0 0.00 0.00 0.00 77 1014.7
20260506172002 74 229 9.0 14.0 0.00 0.00 0.00 76 1014.9
20260506171505 74 229 8.0 16.0 0.00 0.00 0.00 76 1014.9
20260506171006 74 215 10.0 19.0 0.00 0.00 0.00 76 1015.0
20260506170505 74 231 9.0 19.0 0.00 0.00 0.00 75 1015.0
20260506170002 75 239 9.0 14.0 0.00 0.00 0.00 75 1015.2
20260506165502 75 231 8.0 14.0 0.00 0.00 0.00 75 1015.1
20260506165003 75 215 6.0 17.0 0.00 0.00 0.00 75 1015.1
20260506164513 75 228 8.0 17.0 0.00 0.00 0.00 75 1015.1
20260506164003 74 240 5.0 14.0 0.00 0.00 0.00 75 1014.9
20260506163502 74 233 7.0 15.0 0.00 0.00 0.00 75 1014.9
20260506163009 74 227 8.0 17.0 0.00 0.00 0.00 75 1014.9
20260506162508 74 258 9.0 17.0 0.00 0.00 0.00 74 1014.9
20260506162004 75 245 9.0 16.0 0.00 0.00 0.00 73 1014.8
20260506161503 74 198 7.0 12.0 0.00 0.00 0.00 75 1014.8
20260506161004 74 249 5.0 15.0 0.00 0.00 0.00 75 1014.9
20260506160503 74 232 8.0 15.0 0.00 0.00 0.00 75 1014.9
20260506160003 74 278 4.0 15.0 0.00 0.00 0.00 75 1014.8
20260506155504 74 183 5.0 11.0 0.00 0.00 0.00 75 1014.9
20260506155003 74 177 4.0 13.0 0.00 0.00 0.00 75 1014.7
20260506154503 74 229 6.0 13.0 0.00 0.00 0.00 76 1014.8
20260506154003 74 225 8.0 13.0 0.00 0.00 0.00 75 1014.9
20260506153503 74 200 7.0 18.0 0.00 0.00 0.00 76 1015.0
20260506153004 73 265 8.0 18.0 0.00 0.00 0.00 76 1015.1
20260506152504 73 225 7.0 16.0 0.00 0.00 0.00 76 1015.0
20260506152002 73 227 5.0 16.0 0.00 0.00 0.00 77 1015.1
20260506151504 73 211 8.0 17.0 0.00 0.00 0.00 77 1015.1
20260506151003 73 235 9.0 17.0 0.00 0.00 0.00 77 1015.1
20260506150504 73 236 9.0 14.0 0.00 0.00 0.00 77 1015.1
20260506150003 73 219 4.0 15.0 0.00 0.00 0.00 78 1015.1
20260506145503 72 224 7.0 16.0 0.00 0.00 0.00 78 1015.1
20260506145003 71 250 9.0 16.0 0.00 0.00 0.00 78 1015.2
20260506144506 71 226 8.0 15.0 0.00 0.00 0.00 79 1015.3
20260506144006 71 213 6.0 18.0 0.00 0.00 0.00 79 1015.4
20260506143505 71 227 11.0 18.0 0.00 0.00 0.00 79 1015.2
20260506143003 71 211 9.0 17.0 0.00 0.00 0.00 79 1015.4
20260506142503 71 225 9.0 17.0 0.00 0.00 0.00 79 1015.5
20260506142002 71 172 9.0 15.0 0.00 0.00 0.00 79 1015.4
20260506141514 71 217 4.0 15.0 0.00 0.00 0.00 80 1015.4
20260506141004 70 225 8.0 15.0 0.00 0.00 0.00 80 1015.5
20260506140504 69 215 7.0 13.0 0.00 0.00 0.00 82 1015.4
20260506140004 69 225 7.0 11.0 0.00 0.00 0.00 81 1015.4
20260506135503 68 219 6.0 11.0 0.00 0.00 0.00 82 1015.4
20260506135003 68 231 7.0 11.0 0.00 0.00 0.00 82 1015.5
20260506134510 68 186 4.0 14.0 0.00 0.00 0.00 83 1015.4
20260506134004 68 221 8.0 14.0 0.00 0.00 0.00 83 1015.5
20260506133500 67 221 6.0 12.0 0.00 0.00 0.00 83 1015.5
20260506133014 67 202 5.0 12.0 0.00 0.00 0.00 84 1015.5
20260506132503 67 242 4.0 12.0 0.00 0.00 0.00 84 1015.4
20260506132007 67 209 6.0 12.0 0.00 0.00 0.00 84 1015.4
20260506131513 67 218 5.0 12.0 0.00 0.00 0.00 84 1015.5
20260506131003 66 233 8.0 12.0 0.00 0.00 0.00 84 1015.5
20260506130506 66 254 6.0 11.0 0.00 0.00 0.00 84 1015.5
20260506130006 66 244 6.0 13.0 0.00 0.00 0.00 84 1015.5
20260506125507 66 246 4.0 13.0 0.00 0.00 0.00 84 1015.5
20260506125004 66 250 5.0 14.0 0.00 0.00 0.00 84 1015.4
20260506124508 66 244 8.0 14.0 0.00 0.00 0.00 84 1015.4
20260506124003 66 243 5.0 13.0 0.00 0.00 0.00 84 1015.4
20260506123506 66 196 6.0 11.0 0.00 0.00 0.00 84 1015.3
20260506123006 66 214 6.0 13.0 0.00 0.00 0.00 84 1014.9
20260506122505 66 227 7.0 13.0 0.00 0.00 0.00 84 1014.9
20260506122005 66 242 6.0 12.0 0.00 0.00 0.00 84 1014.8
20260506121508 66 205 6.0 13.0 0.00 0.00 0.00 84 1014.8
20260506121008 66 227 7.0 16.0 0.00 0.00 0.00 84 1014.7
20260506120503 66 237 8.0 16.0 0.00 0.00 0.00 84 1014.3
20260506120041 66 235 5.0 13.0 0.00 0.00 0.00 84 1014.3
20260506115503 66 238 8.0 17.0 0.00 0.00 0.00 84 1014.3
20260506115005 66 208 6.0 17.0 0.00 0.00 0.00 84 1014.3
20260506114506 65 216 7.0 12.0 0.00 0.00 0.00 84 1014.4
20260506114007 65 233 5.0 14.0 0.00 0.00 0.00 84 1014.2
20260506113508 65 207 10.0 14.0 0.00 0.00 0.00 84 1014.1
20260506113008 65 257 7.0 14.0 0.00 0.00 0.00 84 1014.1
20260506112503 65 258 3.0 10.0 0.00 0.00 0.00 84 1014.0
20260506112003 65 238 4.0 14.0 0.00 0.00 0.00 84 1014.0
20260506111515 65 209 5.0 14.0 0.00 0.00 0.00 84 1014.0
20260506111003 65 234 6.0 14.0 0.00 0.00 0.00 84 1013.8
20260506110508 65 222 8.0 12.0 0.00 0.00 0.00 84 1013.9
20260506110010 65 229 6.0 15.0 0.00 0.00 0.00 84 1013.8
20260506105508 66 208 6.0 15.0 0.00 0.00 0.00 84 1013.6
20260506105007 66 233 7.0 11.0 0.00 0.00 0.00 84 1013.5
20260506104521 66 242 5.0 10.0 0.00 0.00 0.00 84 1013.4
20260506104009 66 209 5.0 12.0 0.00 0.00 0.00 83 1013.3
20260506103504 66 240 5.0 12.0 0.00 0.00 0.00 83 1013.2
20260506103023 66 198 6.0 13.0 0.00 0.00 0.00 83 1013.3
20260506102509 66 219 8.0 13.0 0.00 0.00 0.00 83 1013.3
20260506102003 65 219 4.0 10.0 0.00 0.00 0.00 83 1013.2
20260506101512 65 209 4.0 11.0 0.00 0.00 0.00 83 1013.1
20260506101003 65 225 4.0 11.0 0.00 0.00 0.00 83 1013.0
20260506100502 65 227 5.0 10.0 0.00 0.00 0.00 83 1013.0
20260506100005 65 212 4.0 10.0 0.00 0.00 0.00 82 1012.8
20260506095502 65 225 6.0 10.0 0.00 0.00 0.00 82 1012.5
20260506095004 65 201 3.0 11.0 0.00 0.00 0.00 82 1012.4
20260506094504 65 209 6.0 11.0 0.00 0.00 0.00 82 1012.4
20260506094002 65 233 3.0 10.0 0.00 0.00 0.00 82 1012.3
20260506093504 65 194 4.0 9.0 0.00 0.00 0.00 82 1012.1
20260506093002 65 228 3.0 9.0 0.00 0.00 0.00 82 1012.0
20260506092504 65 179 4.0 13.0 0.00 0.00 0.00 82 1012.1
20260506092003 65 215 5.0 13.0 0.00 0.00 0.00 82 1012.1
20260506091503 65 234 5.0 11.0 0.00 0.00 0.00 82 1012.0
20260506091002 65 178 4.0 13.0 0.00 0.00 0.00 82 1012.1
20260506090501 65 203 5.0 13.0 0.00 0.00 0.00 82 1012.1
20260506090002 65 173 3.0 10.0 0.00 0.00 0.00 82 1012.1
20260506085503 65 211 5.0 10.0 0.00 0.00 0.00 82 1012.0
20260506085002 65 157 2.0 10.0 0.00 0.00 0.00 81 1012.1
20260506084504 65 201 4.0 12.0 0.00 0.00 0.00 81 1012.1
20260506084006 65 224 4.0 17.0 0.00 0.00 0.00 81 1012.1
20260506083502 65 209 6.0 17.0 0.00 0.00 0.00 81 1012.1
20260506083006 65 219 5.0 12.0 0.00 0.00 0.00 81 1012.1
20260506082504 65 226 6.0 11.0 0.00 0.00 0.00 81 1012.1
20260506082001 65 173 4.0 11.0 0.00 0.00 0.00 80 1012.1
20260506081506 65 196 4.0 12.0 0.00 0.00 0.00 80 1012.2
20260506081002 65 223 6.0 13.0 0.00 0.00 0.00 80 1012.2
20260506080506 65 168 6.0 13.0 0.00 0.00 0.00 80 1012.3
20260506073501 64 207 4.0 9.0 0.00 0.00 0.00 80 1012.1
20260506073003 64 208 4.0 9.0 0.00 0.00 0.00 80 1012.2
20260506072502 64 196 4.0 9.0 0.00 0.00 0.00 80 1012.4
20260506072001 64 209 4.0 9.0 0.00 0.00 0.00 80 1012.4
20260506071503 64 244 5.0 9.0 0.00 0.00 0.00 80 1012.5
20260506071005 65 186 3.0 8.0 0.00 0.00 0.00 79 1012.5
20260506070502 65 185 3.0 8.0 0.00 0.00 0.00 79 1012.5
20260506062501 66 179 4.0 8.0 0.00 0.00 0.00 77 1013.0
20260506062003 66 197 4.0 8.0 0.00 0.00 0.00 77 1013.0
20260506061506 66 207 2.0 9.0 0.00 0.00 0.00 76 1013.1
20260506061003 66 219 3.0 9.0 0.00 0.00 0.00 76 1013.1
20260506060502 66 217 4.0 12.0 0.00 0.00 0.00 76 1013.2
20260506051002 67 200 5.0 11.0 0.00 0.00 0.00 73 1013.2
20260506050502 67 192 6.0 11.0 0.00 0.00 0.00 72 1013.1
20260506045002 68 185 5.0 12.0 0.00 0.00 0.00 71 1012.9
20260506044515 68 236 4.0 12.0 0.00 0.00 0.00 71 1013.0
20260506044004 68 213 7.0 12.0 0.00 0.00 0.00 71 1013.0
20260506043505 68 204 6.0 15.0 0.00 0.00 0.00 70 1013.2
20260506043016 68 190 7.0 15.0 0.00 0.00 0.00 70 1013.2
20260506042504 68 244 9.0 15.0 0.00 0.00 0.00 71 1013.2
20260506042008 68 231 5.0 14.0 0.00 0.00 0.00 71 1013.2
20260506041515 68 231 4.0 11.0 0.00 0.00 0.00 71 1013.1
20260506041003 68 168 4.0 10.0 0.00 0.00 0.00 71 1013.2
20260506040502 68 225 4.0 10.0 0.00 0.00 0.00 71 1013.3
20260506040006 69 208 4.0 10.0 0.00 0.00 0.00 71 1013.4
20260506035503 69 223 4.0 10.0 0.00 0.00 0.00 71 1013.3
20260506035003 69 189 4.0 10.0 0.00 0.00 0.00 70 1013.3
20260506034511 69 199 5.0 15.0 0.00 0.00 0.00 70 1013.3
20260506034004 69 150 6.0 15.0 0.00 0.00 0.00 70 1013.4
20260506033506 69 199 6.0 14.0 0.00 0.00 0.00 69 1013.3
20260506033008 70 194 8.0 14.0 0.00 0.00 0.00 69 1013.2
20260506032507 70 223 5.0 13.0 0.00 0.00 0.00 69 1013.4
20260506032010 70 213 7.0 13.0 0.00 0.00 0.00 69 1013.4
20260506031520 70 213 6.0 14.0 0.00 0.00 0.00 69 1013.2
20260506031007 70 201 5.0 14.0 0.00 0.00 0.00 68 1013.0
20260506030506 70 197 5.0 11.0 0.00 0.00 0.00 68 1012.9
20260506030022 70 228 5.0 14.0 0.00 0.00 0.00 68 1012.9
20260506025506 70 207 5.0 14.0 0.00 0.00 0.00 68 1012.8
20260506025005 70 211 5.0 13.0 0.00 0.00 0.00 68 1012.8
20260506024506 70 194 4.0 13.0 0.00 0.00 0.00 67 1012.9
20260506024004 71 199 5.0 16.0 0.00 0.00 0.00 66 1012.8
20260506023504 71 209 7.0 16.0 0.00 0.00 0.00 66 1012.8
20260506023012 71 199 4.0 13.0 0.00 0.00 0.00 66 1012.8
20260506022503 71 171 6.0 13.0 0.00 0.00 0.00 66 1012.8
20260506022003 71 193 5.0 13.0 0.00 0.00 0.00 65 1012.8
20260506021530 71 186 5.0 12.0 0.00 0.00 0.00 65 1012.8
20260506021004 71 200 6.0 12.0 0.00 0.00 0.00 65 1013.0
20260506020503 71 188 5.0 10.0 0.00 0.00 0.00 65 1012.7
20260506020004 71 204 3.0 10.0 0.00 0.00 0.00 64 1012.5
20260506015503 71 227 3.0 10.0 0.00 0.00 0.00 64 1012.3
20260506015004 71 215 4.0 8.0 0.00 0.00 0.00 63 1012.2
20260506014505 71 207 2.0 10.0 0.00 0.00 0.00 62 1012.3
20260506014004 72 205 3.0 10.0 0.00 0.00 0.00 62 1012.4
20260506013503 72 222 4.0 9.0 0.00 0.00 0.00 62 1012.5
20260506013008 72 204 3.0 6.0 0.00 0.00 0.00 62 1012.5
20260506012504 72 186 2.0 7.0 0.00 0.00 0.00 61 1012.4
20260506012005 72 173 1.0 7.0 0.00 0.00 0.00 61 1012.4
20260506011506 72 141 2.0 7.0 0.00 0.00 0.00 60 1012.4
20260506011007 72 200 2.0 8.0 0.00 0.00 0.00 60 1012.4
20260506010504 73 205 4.0 8.0 0.00 0.00 0.00 59 1012.4
20260506010004 73 180 2.0 7.0 0.00 0.00 0.00 59 1012.3
20260506005507 73 167 2.0 7.0 0.00 0.00 0.00 59 1012.4
20260506005004 73 178 3.0 7.0 0.00 0.00 0.00 59 1012.3
20260506004505 72 167 2.0 6.0 0.00 0.00 0.00 58 1012.1
20260506004006 73 210 2.0 8.0 0.00 0.00 0.00 59 1012.1
20260506003507 73 199 2.0 8.0 0.00 0.00 0.00 58 1012.1
20260506003004 73 207 3.0 7.0 0.00 0.00 0.00 58 1012.0
20260506002506 73 224 3.0 7.0 0.00 0.00 0.00 57 1012.0
20260506002003 73 218 2.0 8.0 0.00 0.00 0.00 57 1012.0
20260506001508 73 200 3.0 8.0 0.00 0.00 0.00 58 1012.2
20260506001004 73 176 2.0 7.0 0.00 0.00 0.00 57 1012.3
20260506000504 73 201 1.0 6.0 0.00 0.00 0.00 57 1012.3
20260506000015 74 213 2.0 6.0 0.00 0.00 0.00 57 1012.3
20260505235505 74 221 2.0 5.0 0.00 0.00 0.00 56 1012.2
20260505235008 74 228 1.0 6.0 0.00 0.00 0.00 55 1012.0
20260505234514 75 194 2.0 6.0 0.00 0.00 0.00 55 1012.1
20260505234004 75 185 1.0 5.0 0.00 0.00 0.00 53 1012.1
20260505233510 75 159 2.0 5.0 0.00 0.00 0.00 54 1012.4
20260505233004 75 201 1.0 5.0 0.00 0.00 0.00 54 1012.6
20260505232503 75 205 1.0 6.0 0.00 0.00 0.00 51 1012.5
20260505232006 75 215 3.0 8.0 0.00 0.00 0.00 51 1012.7
20260505231512 75 198 1.0 8.0 0.00 0.00 0.00 52 1012.7
20260505231008 75 231 1.0 5.0 0.00 0.00 0.00 51 1012.6
20260505230504 75 199 2.0 7.0 0.00 0.00 0.00 50 1012.5
20260505230015 75 163 2.0 8.0 0.00 0.00 0.00 51 1012.5
20260505225505 75 196 2.0 8.0 0.00 0.00 0.00 50 1012.7
20260505225005 75 196 4.0 8.0 0.00 0.00 0.00 48 1012.8
20260505224517 75 189 2.0 7.0 0.00 0.00 0.00 48 1012.8
20260505224009 75 169 3.0 7.0 0.00 0.00 0.00 48 1012.6
20260505223505 75 160 2.0 8.0 0.00 0.00 0.00 49 1012.7
20260505223021 76 203 3.0 7.0 0.00 0.00 0.00 48 1012.8
20260505222507 76 193 4.0 11.0 0.00 0.00 0.00 48 1012.8
20260505222004 76 204 3.0 10.0 0.00 0.00 0.00 46 1012.8
20260505221507 76 188 4.0 12.0 0.00 0.00 0.00 45 1012.7
20260505221003 77 240 4.0 12.0 0.00 0.00 0.00 45 1012.8
20260505220504 77 216 6.0 12.0 0.00 0.00 0.00 43 1012.8
20260505220009 77 213 6.0 10.0 0.00 0.00 0.00 45 1012.8
20260505215508 77 200 3.0 12.0 0.00 0.00 0.00 47 1012.8
20260505215007 77 200 6.0 12.0 0.00 0.00 0.00 45 1013.0
20260505214516 77 220 6.0 10.0 0.00 0.00 0.00 45 1012.9
20260505214008 77 201 2.0 15.0 0.00 0.00 0.00 46 1012.8
20260505213506 77 182 4.0 19.0 0.00 0.00 0.00 45 1012.9
20260505213017 78 250 11.0 19.0 0.00 0.00 0.00 43 1012.7
20260505212510 79 194 4.0 14.0 0.00 0.00 0.00 43 1012.7
20260505212010 79 182 4.0 14.0 0.00 0.00 0.00 42 1012.7